This is the latest recevied weather packets stored in our database for station/object SP1BMW-13. If no packets are shown the sender has not sent any weather packets the latest 10 day(s).
| Time | Temp. | Humidity | Pressure | Rain* | Wind** | Luminosity | Snow |
|---|---|---|---|---|---|---|---|
| 1777204430 | 11.67° C | 25% | 1023.9 hPa | 0 mm | 1.34 m/s, 301° | 660 W/m² | - |
| 1777204370 | 11.67° C | 28% | 1023.9 hPa | 0 mm | 3.13 m/s, 334° | 661 W/m² | - |
| 1777204310 | 11.11° C | 26% | 1024 hPa | 0 mm | 2.24 m/s, 277° | 661 W/m² | - |
| 1777204250 | 11.11° C | 26% | 1023.9 hPa | 0 mm | 0.89 m/s, 298° | 661 W/m² | - |
| 1777204200 | 11.11° C | 24% | 1023.8 hPa | 0 mm | 0.89 m/s, 276° | 663 W/m² | - |
| 1777204130 | 11.11° C | 27% | 1024.2 hPa | 0 mm | 1.79 m/s, 301° | 662 W/m² | - |
| 1777204070 | 11.11° C | 26% | 1024.1 hPa | 0 mm | 1.79 m/s, 8° | 663 W/m² | - |
| 1777204010 | 11.11° C | 25% | 1024.2 hPa | 0 mm | 3.13 m/s, 292° | 663 W/m² | - |
| 1777203950 | 11.11° C | 25% | 1024 hPa | 0 mm | 1.34 m/s, 353° | 663 W/m² | - |
| 1777203890 | 11.11° C | 27% | 1024.1 hPa | 0 mm | 0.45 m/s, 113° | 664 W/m² | - |
| 1777203830 | 11.11° C | 25% | 1024 hPa | 0 mm | 1.79 m/s, 300° | 664 W/m² | - |
| 1777203770 | 11.11° C | 25% | 1024 hPa | 0 mm | 2.24 m/s, 307° | 665 W/m² | - |
| 1777203710 | 11.11° C | 26% | 1024 hPa | 0 mm | 1.34 m/s, 259° | 665 W/m² | - |
| 1777203650 | 11.11° C | 24% | 1024 hPa | 0 mm | 2.24 m/s, 276° | 666 W/m² | - |
| 1777203590 | 11.11° C | 25% | 1024 hPa | 0 mm | 2.68 m/s, 281° | 668 W/m² | - |
| 1777203530 | 11.11° C | 25% | 1024.2 hPa | 0 mm | 2.68 m/s, 319° | 667 W/m² | - |
| 1777203470 | 11.11° C | 27% | 1024 hPa | 0 mm | 1.79 m/s, 309° | 667 W/m² | - |
| 1777203410 | 11.11° C | 25% | 1024.1 hPa | 0 mm | 3.13 m/s, 341° | 668 W/m² | - |
| 1777203350 | 11.11° C | 25% | 1024 hPa | 0 mm | 1.34 m/s, 314° | 669 W/m² | - |
| 1777203290 | 11.11° C | 26% | 1024 hPa | 0 mm | 2.68 m/s, 309° | 669 W/m² | - |
| 1777203230 | 11.11° C | 27% | 1024 hPa | 0 mm | 2.24 m/s, 297° | 668 W/m² | - |
| 1777203170 | 11.11° C | 26% | 1024.1 hPa | 0 mm | 1.79 m/s, 349° | 669 W/m² | - |
| 1777203110 | 11.11° C | 24% | 1024 hPa | 0 mm | 3.13 m/s, 335° | 671 W/m² | - |
| 1777203050 | 11.11° C | 26% | 1024.1 hPa | 0 mm | 2.24 m/s, 294° | 670 W/m² | - |
| 1777202990 | 11.11° C | 24% | 1024.1 hPa | 0 mm | 2.24 m/s, 321° | 671 W/m² | - |
* Rain latest hour (hover to see other rain measurements)
** Current wind speed in m/s (hover to see current wind gust speed)